Location: Unspecified
(0.0000°N, 0.0000°E)
Time: 06:20:03
(UTC+00:00)

Transit 2A - Pass Details

Date: 27 May 2019
Orbit: 598 x 960 km, 66.7° (Epoch: 15 September)

Event Time Altitude Azimuth Distance (km) Brightness Sun altitude
Rises 17:15:33 0° 329° (NNW) 3,192 10.1 9.7°
Reaches altitude 10° 17:18:06 10° 323° (NW) 2,209 9.6 9.1°
Maximum altitude 17:22:50 44° 251° (WSW) 928 7.2 8.0°
Drops below altitude 10° 17:27:12 10° 179° (S) 2,030 8.0 7.0°
Sets 17:29:29 0° 172° (S) 2,904 8.7 6.4°
